This demonstration page uses our WeatherBlox Daily Observations layout. Learn more.

39.01783, -85.05884

Hourly Observations for February 23, 2021

Temp ( °F °C ) Dew Point ( °F °C ) Humidity (%) Winds ( mph kmh ) Pressure ( in mb ) Visibility ( mi km ) Precip ( " mm )
12:52 am 00:52 Clear 36 2.2 27 -2.8 70 70 SSW 10 17 29.84 1011 10 16.0934 0 0
1:52 am 01:52 Mostly Cloudy 38 3.3 27 -2.8 65 65 SW 14 22 29.83 1010 10 16.0934 0 0
2:52 am 02:52 Mostly Cloudy 38 3.3 27 -2.8 65 65 SSW 14 22 29.79 1009 10 16.0934 0 0
3:52 am 03:52 Partly Cloudy 39 3.9 26 -3.3 60 60 SW 17 28 29.76 1008 10 16.0934 0 0
4:52 am 04:52 Partly Cloudy 40 4.4 27 -2.8 60 60 SW 16 26 29.76 1008 10 16.0934 0 0
5:52 am 05:52 Partly Cloudy 40 4.4 27 -2.8 60 60 SW 12 19 29.77 1008 10 16.0934 0 0
6:52 am 06:52 Partly Cloudy 40 4.4 27 -2.8 60 60 SW 14 22 29.78 1009 10 16.0934 0 0
7:52 am 07:52 Sunny 39 3.9 27 -2.8 62 62 SW 15 24 29.8 1009 10 16.0934 0 0
8:52 am 08:52 Sunny 41 5 28 -2.2 60 60 WSW 10 17 29.84 1010 10 16.0934 0 0
9:52 am 09:52 Sunny 44 6.7 29 -1.7 55 55 W 13 20 29.86 1011 10 16.0934 0 0
10:52 am 10:52 Sunny 45 7.2 31 -0.6 58 58 W 20 31 29.88 1012 10 16.0934 0 0
11:52 am 11:52 Sunny 46 7.8 30 -1.1 54 54 W 20 31 29.9 1013 10 16.0934 0 0
12:52 pm 12:52 Sunny 48 8.9 29 -1.7 48 48 WNW 20 31 29.93 1014 10 16.0934 0 0
1:52 pm 13:52 Sunny 50 10 30 -1.1 46 46 W 15 24 29.92 1013 10 16.0934 0 0
2:52 pm 14:52 Sunny 51 10.6 29 -1.7 43 43 WNW 13 20 29.93 1014 10 16.0934 0 0
3:52 pm 15:52 Sunny 52 11.1 29 -1.7 41 41 WNW 13 20 29.95 1014 10 16.0934 0 0
4:52 pm 16:52 Sunny 52 11.1 26 -3.3 37 37 W 10 17 29.96 1015 10 16.0934 0 0
5:52 pm 17:52 Sunny 52 11.1 25 -3.9 35 35 WNW 3 6 29.96 1014 10 16.0934 0 0
6:52 pm 18:52 Clear 48 8.9 25 -3.9 41 41 S 3 6 29.97 1015 10 16.0934 0 0
7:52 pm 19:52 Clear 41 5 24 -4.4 51 51 SSW 5 7 30.01 1016 10 16.0934 0 0
8:52 pm 20:52 Clear 44 6.7 27 -2.8 51 51 SSE 3 6 30 1016 10 16.0934 0 0
9:52 pm 21:52 Mostly Clear 41 5 26 -3.3 55 55 S 3 6 29.99 1016 10 16.0934 0 0
10:52 pm 22:52 Mostly Clear 40 4.4 25 -3.9 55 55 S 7 11 29.99 1016 10 16.0934 0 0
11:52 pm 23:52 Mostly Clear 41 5 24 -4.4 51 51 S 6 9 29.97 1015 10 16.0934 0 0

Powered by AerisWeather